Track IRIDIUM 148 now! 10-day predictions IRIDIUM 148 is classified as:
1 43255U 18030G 22220.37589011 .00000158 00000-0 49297-4 0 9992 2 43255 86.4025 159.2537 0002507 84.6748 275.4733 14.34218978228245